Regional Weather Roundup
Issued by NWS Green Bay, WI

Home | Current Version | Previous Version | Graphics & Text | Print | Product List | Glossary Off
Versions: 1 2 3 4 5 6 7 8 9 10 11 12 13 14 15 16 17 18 19 20 21 22 23 24 25 26 27 28 29 30 31 32 33 34 35 36 37 38 39 40 41 42 43 44 45 46 47 48 49 50

000
ASUS43 KGRB 312159
RWRGRB

NORTH-CENTRAL AND NORTHEAST WISCONSIN REGIONAL WEATHER ROUNDUP
NATIONAL WEATHER SERVICE GREEN BAY WI
400 PM CST SAT JAN 31 2015

WIZ005-009-010>012-018-019-312300-
NORTH CENTRAL WISCONSIN

CITY           SKY/WX    TMP DP  RH WIND       PRES   REMARKS
IRONWOOD       CLOUDY    16  10  79 N6        30.21F WCI   7
MANITOWISH WTR NOT AVBL
ARBOR VITAE    NOT AVBL
EAGLE RIVER    NOT AVBL
LAND O LAKES   NOT AVBL
RHINELANDER    CLOUDY    21  11  65 N3        30.16R
PHILLIPS       NOT AVBL
ANTIGO         NOT AVBL
TOMAHAWK       NOT AVBL
MERRILL        NOT AVBL
$$

WIZ013-073-312300-
NORTHEAST WISCONSIN

CITY           SKY/WX    TMP DP  RH WIND       PRES   REMARKS
IRON MOUNTAIN  MOCLDY    22  11  62 N13       30.17R WCI  10
MARINETTE      CLOUDY    28  18  64 N5        30.19R
$$

WIZ017-030-035>037-045-312300-
CENTRAL WISCONSIN

CITY           SKY/WX    TMP DP  RH WIND       PRES   REMARKS
MEDFORD        NOT AVBL
WAUSAU         CLOUDY    26  17  68 N5        30.15R
MOSINEE        NOT AVBL
MARSHFIELD     CLOUDY    28  18  66 N3        30.16S
WISC RAPIDS    CLOUDY    28  18  66 N8        30.18S
STEVENS POINT  NOT AVBL
WAUPACA        NOT AVBL
SHAWANO        NOT AVBL
CLINTONVILLE   NOT AVBL
$$

WIZ038-039-048-051-312300-
FOX VALLEY

CITY           SKY/WX    TMP DP  RH WIND       PRES   REMARKS
NWS GREEN BAY  CLOUDY    28  19  69 NW3       30.19R
APPLETON       CLOUDY    27  18  69 CALM      30.18R
OSHKOSH        CLOUDY    28  19  69 NE6       30.18R
FOND DU LAC    CLOUDY    28  19  69 N9        30.18R
$$

WIZ022-050-052-312300-
EAST CENTRAL WISCONSIN

CITY           SKY/WX    TMP DP  RH WIND       PRES   REMARKS
STURGEON BAY   CLOUDY    27  18  69 NW3       30.22R
MANITOWOC      NOT AVBL
SHEBOYGAN      CLOUDY    29  19  66 NE7       30.18R
$$

LMZ563-521-522-541>543-312300-
LAKESHORE

STATION/POSITION TIME  TEMP    WIND        PRES    VSBY  WAVE
                       AIR SEA DIR/SP/G                  HT/PER
                 (UTC) (F)     (DEG/KT/KT) (MB)    (MI)  (FT/S)
SHEBOYGAN LKSHOR 2100   29      10/  8/  9 1022.9R
KEWAUNEE LKSHORE 2100   28      30/  4/  7 1021.5R
NORTHPORT PIER   2100   26      20/ 10/ 14 1022.4R
SISTER BAY LKSHO 2100   27        CALM       N/A
CHAMBERS ISLAND  2100   28     310/  5/  7 1022.4R
MENOMINEE LKSHOR 2100   28     310/  9     1022.8R
$$



USA.gov is the U.S. government's official web portal to all federal, state and local government web resources and services.